Regional Weather Roundup
Issued by NWS Albany, NY

Home | Current Version | Previous Version | Text Only | Print | Product List | Glossary On
Versions: 1 2 3 4 5 6 7 8 9 10 11 12 13 14 15 16 17 18 19 20 21 22 23 24 25 26 27 28 29 30 31 32 33 34 35 36 37 38 39 40
000
ASUS41 KALY 272010
RWRALY

NEW YORK STATE HOURLY WEATHER ROUNDUP
NATIONAL WEATHER SERVICE ALBANY NY
300 PM EST SAT DEC 27 2014

NOTE: "FAIR" INDICATES FEW OR NO CLOUDS BELOW 12,000 FEET WITH NO
SIGNIFICANT WEATHER AND/OR NO OBSTRUCTIONS TO VISIBILITY.

NYZ032-033-038>043-046>054-057>066-NYZ062>081-272100-
EAST


CITY           SKY/WX    TMP DP  RH WIND       PRES   REMARKS
ALBANY         MOSUNNY   49  34  56 S6        30.13S
GLENS FALLS    PTSUNNY   45  33  63 E3        30.12S
POUGHKEEPSIE   CLOUDY    53  34  48 W7        30.15F
NEWBURGH       MOSUNNY   50  37  62 W7        30.17F
MONTGOMERY     CLOUDY    53  34  48 CALM      30.14F
WHITE PLAINS   SUNNY     52  33  48 CALM      30.14F
ISLIP          PTSUNNY   50  32  50 S8        30.16F
NEW YORK CITY  PTSUNNY   54  33  45 SW6       30.15F
CENTRAL PARK   SUNNY     55  32  41 W5        30.18F
$$

NYZ005>009-017-018-044>046-055-056-272100-
CENTRAL


CITY           SKY/WX    TMP DP  RH WIND       PRES   REMARKS
FULTON         CLOUDY    52  38  58 S5        30.04F
SYRACUSE       CLOUDY    54  37  52 SW9       30.05F
ROME           PTSUNNY   50  36  58 S7        30.07F
ELMIRA         CLOUDY    53  37  54 SW8       30.08F
BINGHAMTON     MOSUNNY   47  34  60 S9        30.08F
MONTICELLO     MOSUNNY   48  34  57 SW3       30.14F
$$

NYZ026>034-041>043-272100-
NORTH


CITY           SKY/WX    TMP DP  RH WIND       PRES   REMARKS
WATERTOWN      CLOUDY    50  35  56 S8        30.03F
FORT DRUM      NOT AVBL
MASSENA        CLOUDY    43  35  73 SE3       30.03F
SARANAC LAKE   CLOUDY    39  33  79 SW10      30.00F WCI  32
PLATTSBURGH    CLOUDY    41  33  73 SE5       30.07F
$$

NYZ001>004-010>016-019>021-272100-
WEST


CITY           SKY/WX    TMP DP  RH WIND       PRES   REMARKS
NIAGARA FALLS  MOSUNNY   52  41  66 S15G24    29.95F
BUFFALO        MOSUNNY   53  40  61 S18       29.96F
DUNKIRK        SUNNY     55  41  59 S17G25    29.97F
JAMESTOWN      SUNNY     48  37  66 S12       30.01S
WELLSVILLE     CLOUDY    47  36  65 S12       30.06F
ROCHESTER      PTSUNNY   54  39  57 SW10      29.99F
PENN YAN       CLOUDY    53  37  54 S7        30.04F
$$

             KEY
       WCI = WIND CHILL INDEX
       VSB = VISIBILITY
       HX  = HEAT INDEX
$$


USA.gov is the U.S. government's official web portal to all federal, state and local government web resources and services.